• In Uzbekistan
  • List of Countries
  • For 7 days
  • Water Temperature
  • Satellite Maps
  • Weather Map
  • Weather Widgets
  • user-avatar
    Login

    Hourly Weather Yerevan

    Today, 23 May, Wednesday

    Time Temperature Precipitation Wind Pressure Humidity
    00:00 +20°C° 0.5 mm 1 mps 693 mmHg 76%
    01:00 +19°C° 0.2 mm 1 mps 693 mmHg 78%
    02:00 +19°C° 0.2 mm 1 mps 693 mmHg 79%
    03:00 +18°C° 0 mm 1 mps 692 mmHg 81%
    04:00 +19°C° 0.1 mm 1 mps 692 mmHg 79%
    05:00 +19°C° 0.1 mm 1 mps 693 mmHg 77%
    06:00 +20°C° 0.1 mm 1 mps 693 mmHg 74%
    07:00 +21°C° 0 mm 1 mps 693 mmHg 68%
    08:00 +21°C° 0 mm 2 mps 693 mmHg 62%
    09:00 +24°C° 0 mm 2 mps 693 mmHg 56%
    10:00 +25°C° 0.2 mm 2 mps 693 mmHg 52%
    11:00 +26°C° 0.2 mm 2 mps 693 mmHg 49%
    12:00 +27°C° 0.2 mm 3 mps 693 mmHg 46%
    13:00 +27°C° 0.4 mm 3 mps 693 mmHg 45%
    14:00 +28°C° 0.4 mm 3 mps 692 mmHg 43%
    15:00 +28°C° 0.4 mm 4 mps 692 mmHg 42%
    16:00 +28°C° 0.4 mm 3 mps 692 mmHg 45%
    17:00 +27°C° 0.4 mm 3 mps 692 mmHg 47%
    18:00 +26°C° 0.4 mm 3 mps 692 mmHg 50%
    19:00 +25°C° 0.3 mm 3 mps 692 mmHg 53%
    20:00 +22°C° 0.3 mm 3 mps 692 mmHg 57%
    21:00 +20°C° 0.3 mm 3 mps 692 mmHg 61%
    22:00 +20°C° 0.1 mm 2 mps 692 mmHg 61%
    23:00 +19°C° 0.1 mm 2 mps 692 mmHg 62%

    Tomorrow, 24 May, Thursday

    Time Temperature Precipitation Wind Pressure Humidity
    00:00 +18°C° 0.1 mm 2 mps 692 mmHg 62%
    01:00 +18°C° 0.1 mm 2 mps 691 mmHg 62%
    02:00 +17°C° 0.1 mm 2 mps 691 mmHg 63%
    03:00 +17°C° 0.1 mm 2 mps 691 mmHg 63%
    04:00 +17°C° 0 mm 2 mps 691 mmHg 62%
    05:00 +18°C° 0 mm 2 mps 691 mmHg 61%
    06:00 +19°C° 0 mm 1 mps 691 mmHg 60%
    07:00 +21°C° 0 mm 1 mps 691 mmHg 55%
    08:00 +23°C° 0 mm 1 mps 691 mmHg 49%
    09:00 +24°C° 0 mm 1 mps 691 mmHg 43%
    10:00 +25°C° 0 mm 1 mps 691 mmHg 41%
    11:00 +26°C° 0 mm 2 mps 690 mmHg 38%
    12:00 +27°C° 0 mm 2 mps 690 mmHg 35%
    13:00 +28°C° 0 mm 3 mps 690 mmHg 34%
    14:00 +28°C° 0 mm 3 mps 690 mmHg 34%
    15:00 +28°C° 0 mm 3 mps 690 mmHg 33%
    16:00 +28°C° 0.1 mm 3 mps 689 mmHg 37%
    17:00 +27°C° 0.1 mm 3 mps 689 mmHg 41%
    18:00 +26°C° 0.1 mm 3 mps 689 mmHg 45%
    19:00 +24°C° 0.1 mm 2 mps 689 mmHg 49%
    20:00 +23°C° 0.1 mm 2 mps 689 mmHg 53%
    21:00 +20°C° 0.1 mm 2 mps 689 mmHg 57%
    22:00 +20°C° 0 mm 2 mps 689 mmHg 59%
    23:00 +19°C° 0 mm 2 mps 688 mmHg 60%

    Day after tomorrow, 25 May, Friday

    Time Temperature Precipitation Wind Pressure Humidity
    00:00 +19°C° 0 mm 1 mps 688 mmHg 62%
    01:00 +19°C° 0 mm 1 mps 688 mmHg 62%
    02:00 +18°C° 0 mm 1 mps 688 mmHg 63%
    03:00 +18°C° 0 mm 1 mps 687 mmHg 63%
    04:00 +19°C° 0 mm 1 mps 687 mmHg 62%
    05:00 +19°C° 0 mm 1 mps 688 mmHg 61%
    06:00 +20°C° 0 mm 1 mps 688 mmHg 60%
    07:00 +21°C° 0 mm 1 mps 688 mmHg 56%
    08:00 +23°C° 0 mm 1 mps 688 mmHg 52%
    09:00 +24°C° 0 mm 1 mps 687 mmHg 47%
    10:00 +25°C° 0.1 mm 2 mps 687 mmHg 46%
    11:00 +26°C° 0.1 mm 2 mps 687 mmHg 44%
    12:00 +27°C° 0.1 mm 2 mps 687 mmHg 42%
    13:00 +28°C° 0.5 mm 2 mps 687 mmHg 41%
    14:00 +28°C° 0.5 mm 2 mps 687 mmHg 41%
    15:00 +28°C° 0.5 mm 2 mps 686 mmHg 40%
    16:00 +28°C° 0.4 mm 2 mps 686 mmHg 42%
    17:00 +27°C° 0.4 mm 2 mps 686 mmHg 45%
    18:00 +26°C° 0.4 mm 2 mps 686 mmHg 47%
    19:00 +25°C° 0.3 mm 1 mps 686 mmHg 51%
    20:00 +23°C° 0.3 mm 1 mps 687 mmHg 55%
    21:00 +22°C° 0.3 mm 1 mps 687 mmHg 58%
    22:00 +21°C° 0.2 mm 1 mps 687 mmHg 59%
    23:00 +21°C° 0.2 mm 1 mps 687 mmHg 60%

    26 May, Saturday

    Time Temperature Precipitation Wind Pressure Humidity
    00:00 +21°C° 0.2 mm 1 mps 687 mmHg 61%
    01:00 +20°C° 0.2 mm 1 mps 687 mmHg 63%
    02:00 +20°C° 0.2 mm 1 mps 687 mmHg 64%
    03:00 +19°C° 0.2 mm 1 mps 686 mmHg 65%
    04:00 +20°C° 0.1 mm 1 mps 687 mmHg 65%
    05:00 +20°C° 0.1 mm 1 mps 687 mmHg 64%
    06:00 +21°C° 0.1 mm 1 mps 687 mmHg 63%
    07:00 +23°C° 0.1 mm 1 mps 688 mmHg 57%
    08:00 +24°C° 0.1 mm 1 mps 688 mmHg 52%
    09:00 +26°C° 0.1 mm 1 mps 688 mmHg 46%
    10:00 +27°C° 0.2 mm 1 mps 688 mmHg 44%
    11:00 +28°C° 0.2 mm 2 mps 688 mmHg 41%
    12:00 +29°C° 0.2 mm 2 mps 688 mmHg 39%
    13:00 +29°C° 0.5 mm 2 mps 687 mmHg 38%
    14:00 +29°C° 0.5 mm 2 mps 687 mmHg 37%
    15:00 +30°C° 0.5 mm 2 mps 687 mmHg 37%
    16:00 +29°C° 0.8 mm 2 mps 687 mmHg 40%
    17:00 +28°C° 0.8 mm 2 mps 687 mmHg 44%
    18:00 +27°C° 0.8 mm 2 mps 687 mmHg 47%
    19:00 +26°C° 0.8 mm 2 mps 688 mmHg 51%
    20:00 +24°C° 0.8 mm 2 mps 688 mmHg 55%
    21:00 +23°C° 0.8 mm 2 mps 688 mmHg 60%
    22:00 +21°C° 0.7 mm 2 mps 689 mmHg 63%
    23:00 +21°C° 0.7 mm 1 mps 689 mmHg 66%

    27 May, Sunday

    Time Temperature Precipitation Wind Pressure Humidity
    00:00 +21°C° 0.7 mm 1 mps 689 mmHg 69%
    01:00 +21°C° 0.1 mm 1 mps 689 mmHg 69%
    02:00 +20°C° 0.1 mm 1 mps 689 mmHg 69%
    03:00 +20°C° 0.1 mm 1 mps 689 mmHg 69%
    04:00 +21°C° 0.1 mm 1 mps 690 mmHg 67%
    05:00 +21°C° 0.1 mm 1 mps 690 mmHg 66%
    06:00 +22°C° 0.1 mm 1 mps 691 mmHg 65%
    07:00 +23°C° 0 mm 1 mps 691 mmHg 59%
    08:00 +25°C° 0 mm 1 mps 692 mmHg 52%
    09:00 +26°C° 0 mm 2 mps 692 mmHg 46%
    10:00 +27°C° 0 mm 2 mps 692 mmHg 43%
    11:00 +29°C° 0 mm 2 mps 692 mmHg 39%
    12:00 +30°C° 0 mm 2 mps 692 mmHg 35%
    13:00 +30°C° 0.1 mm 2 mps 692 mmHg 35%
    14:00 +30°C° 0.1 mm 2 mps 692 mmHg 34%
    15:00 +30°C° 0.1 mm 2 mps 692 mmHg 33%
    16:00 +30°C° 0.1 mm 2 mps 692 mmHg 37%
    17:00 +29°C° 0.1 mm 3 mps 692 mmHg 40%
    18:00 +28°C° 0.1 mm 3 mps 692 mmHg 44%
    19:00 +26°C° 0 mm 3 mps 693 mmHg 50%
    20:00 +24°C° 0 mm 3 mps 693 mmHg 55%
    21:00 +22°C° 0 mm 3 mps 693 mmHg 61%
    22:00 +21°C° 0 mm 3 mps 693 mmHg 63%
    23:00 +20°C° 0 mm 2 mps 693 mmHg 64%

    28 May, Monday

    Time Temperature Precipitation Wind Pressure Humidity
    00:00 +20°C° 0 mm 2 mps 693 mmHg 66%
    01:00 +19°C° 0 mm 2 mps 693 mmHg 66%
    02:00 +19°C° 0 mm 2 mps 692 mmHg 66%
    03:00 +19°C° 0 mm 1 mps 692 mmHg 67%
    04:00 +20°C° 0 mm 1 mps 692 mmHg 64%
    05:00 +21°C° 0 mm 1 mps 693 mmHg 61%
    06:00 +22°C° 0 mm 1 mps 693 mmHg 59%
    07:00 +24°C° 0 mm 1 mps 693 mmHg 53%
    08:00 +25°C° 0 mm 1 mps 693 mmHg 47%
    09:00 +27°C° 0 mm 2 mps 692 mmHg 41%
    10:00 +28°C° 0 mm 2 mps 692 mmHg 38%
    11:00 +30°C° 0 mm 2 mps 692 mmHg 35%
    12:00 +31°C° 0 mm 2 mps 691 mmHg 32%
    13:00 +31°C° 0.1 mm 2 mps 691 mmHg 32%
    14:00 +32°C° 0.1 mm 2 mps 691 mmHg 31%
    15:00 +32°C° 0.1 mm 2 mps 690 mmHg 31%
    16:00 +32°C° 0.2 mm 2 mps 690 mmHg 34%
    17:00 +31°C° 0.2 mm 2 mps 690 mmHg 38%
    18:00 +30°C° 0.2 mm 2 mps 690 mmHg 41%
    19:00 +28°C° 0.6 mm 2 mps 690 mmHg 48%
    20:00 +26°C° 0.6 mm 2 mps 690 mmHg 54%
    21:00 +24°C° 0.6 mm 1 mps 691 mmHg 61%
    22:00 +23°C° 0.2 mm 1 mps 691 mmHg 63%
    23:00 +23°C° 0.2 mm 1 mps 691 mmHg 65%
    Show more